Regional Weather Roundup
Issued by NWS Upton, NY

Home | Current Version | Previous Version | Text Only | Print | Product List | Glossary On
Versions: 1 2 3 4 5 6 7 8 9 10 11 12 13 14 15 16 17 18 19 20 21 22 23 24 25 26 27 28
000
ASUS41 KOKX 241304
RWROKX

REGIONAL WEATHER ROUNDUP
NATIONAL WEATHER SERVICE NEW YORK NY
900 AM EDT WED AUG 24 2016

NOTE: "FAIR" INDICATES FEW OR NO CLOUDS BELOW 12,000 FEET WITH NO
SIGNIFICANT WEATHER AND/OR OBSTRUCTIONS TO VISIBILITY.

NYZ071-072-176-178-NJZ106-104-241400-
NEW YORK CITY METRO AREA

CITY           SKY/WX    TMP DP  RH WIND       PRES   REMARKS
Central Park   SUNNY     73  59  61 VRB3      30.32S
LaGuardia APRT MOSUNNY   77  60  55 CALM      30.28F
Kennedy INTL   MOSUNNY   74  64  71 W7        30.30S
Newark/Liberty MOSUNNY   75  59  57 W7        30.29S
Bronx Bot Gard   N/A     77  59  53 SW3       30.31F
Wall St Helipt SUNNY     73  63  68 W7        30.30F
Teterboro      SUNNY     73  58  59 CALM      30.28F
$$

NYZ177-179-078>081-241400-
LONG ISLAND NEW YORK

CITY           SKY/WX    TMP DP  RH WIND       PRES   REMARKS
Farmingdale    SUNNY     76  60  57 W6        30.29S
MacArthur/ISP  MOSUNNY   76  61  59 W6        30.28S
Shirley        SUNNY     74  63  68 VRB3      30.29S
Riverhead      NOT AVBL
Westhampton    SUNNY     75  60  59 W5        30.30F
Southampton      N/A     75  64  69 NW5       30.25S
Bridgehampton    N/A     70  64  83 E1        30.27S
East Hampton   FAIR      73  64  72 W3        30.27S
Montauk          N/A     74  65  73 W6        30.28F
$$

NYZ052-065-067-241400-
HUDSON VALLEY

CITY           SKY/WX    TMP DP  RH WIND       PRES   REMARKS
White Plains   SUNNY     74  62  66 VRB3      30.29S
Newburgh       SUNNY     68  61  77 CALM      30.31F
Montgomery     SUNNY     68  61  78 SW5       30.30S
Poughkeepsie   SUNNY     69  61  75 CALM      30.28F
Albany         MOSUNNY   67  60  78 S5        30.29S
$$

NJZ001-105-106-008-010-013-015-019>022-104-241400-
NEW JERSEY

CITY           SKY/WX    TMP DP  RH WIND       PRES   REMARKS
Newark/Liberty MOSUNNY   75  59  57 W7        30.29S
Teterboro      SUNNY     73  58  59 CALM      30.28F
Caldwell       SUNNY     69  60  73 CALM      30.30F
Morristown     MOSUNNY   68  61  77 CALM      30.30F
Somerville     SUNNY     68  60  75 CALM      30.29F
Linden         FAIR      73  58  59 CALM      30.31F
Sussex         SUNNY     66  62  87 VRB3      30.31F
Abdover          N/A     67  62  84 CALM      30.32S
Trenton        SUNNY     71  60  68 VRB5      30.31S
Millville      SUNNY     74  67  78 W5        30.32S
Atlantic City  SUNNY     74  61  63 W5        30.31F
Wrightstown    SUNNY     73  61  66 VRB5      30.28F
Toms River     SUNNY     73  62  68 NW7       30.31F
Belmar         SUNNY     72  61  68 W6        30.32S
$$

PAZ047>061-062-071-241400-
EASTERN PENNSYLVANIA

CITY           SKY/WX    TMP DP  RH WIND       PRES   REMARKS
Philadelphia   MOSUNNY   74  62  66 W6        30.31S
Allentown      SUNNY     69  61  75 CALM      30.32S
Scranton       SUNNY     67  58  72 CALM      30.32S
$$

CTZ002-004>006-009-010-012-RIZ004-006-007-MAZ004-011-015-241400-
SOUTHERN NEW ENGLAND
 IN CT

CITY           SKY/WX    TMP DP  RH WIND       PRES   REMARKS
Bradley INTL   MOSUNNY   68  58  70 CALM      30.28F
Hartford       SUNNY     72  61  68 CALM      30.27F
Danbury        SUNNY     69  62  78 CALM      30.30F
Wtrbury/Oxford NOT AVBL
Bridgeport     SUNNY     74  61  63 SW6       30.28S
Meriden        SUNNY     72  61  68 CALM      30.28S
New Haven      MOSUNNY   71  61  70 NW3       30.28S
Chester        FAIR      73  61  64 CALM      30.29S
Groton         SUNNY     75  63  66 W8        30.27S
Wilimantic     SUNNY     66  61  84 CALM      30.29F

 IN RI

CITY           SKY/WX    TMP DP  RH WIND       PRES   REMARKS
Providence     MOSUNNY   74  61  63 W7        30.27S
Block Island   SUNNY     74  65  73 W10       30.28F
Westerly       SUNNY     74  63  68 W6        30.28F
 IN MA

CITY           SKY/WX    TMP DP  RH WIND       PRES   REMARKS
Boston         MOSUNNY   74  58  57 W8        30.25S
Worcester      SUNNY     68  57  68 W7        30.30R
Westfield      SUNNY     66  59  78 CALM      30.28F
Provincetown   SUNNY     71  64  78 W8        30.26S
Nantucket      SUNNY     74  64  71 SW12      30.27S
$$

ANZ330-335-338-340-345-350-353-355-241400-
COASTAL MARINE OBSERVATIONS


STATION/POSITION TIME  SKY/WX   TEMP    WIND        PRES    VSBY  WAVE
                                AIR SEA DIR/SP/G                  HT/PER
                 (UTC)          (F)     (DEG/KT/KT) (MB)    (MI)  (FT/S)
NY HARB ENTRANCE 1150            72 76  290/  8/ 10 1025.8          2/13
20S FIRE ISLAND  1150            74 76  290/ 10/ 10 1025.5          2/12
GREAT SOUTH BAY  1200            71 78  280/  6/  6   N/A
23 SSW MONTAUK P 1150            74 74  270/ 10/ 12 1025.9          2/13
15 E BARNEGAT LI 1200               76                N/A           2/13
HUDSON CANYON    1150            75 77              1025.8          2/13
KINGS POINT      1200            71 75              1025.4
EXECUTION ROCKS  1200            80     240/  4/  4   N/A
CENTRAL LI SOUND NOT AVBL
EASTERN LI SOUND 1200            75 69  300/  4/  6   N/A
ROBBINS REEF     1200            69     280/  5/  6 1025.1
$$


>>>>>>>>>>>>>>>>>>>>>>>>>>>> KEY <<<<<<<<<<<<<<<<<<<<<<<<<<<
>                                                          <
>     SKY/WX - Sky Condition/Present Weather               <
>     TMP    - Temperature in Fahrenheit                   <
>     DP     - Dew Point in Fahrenheit                     <
>     RH     - Relative Humidity in Percent                <
>     WIND   - Direction (from) and Speed in MPH           <
>     PRES   - Mean Sea Level Pressure (inches of Hg)      <
>     WCI    - Wind Chill Index                            <
>     VSB    - VISIBILITY IN MILES                         <
>     HX     - HEAT INDEX                                  <
>     TC     - TEMPERATURE IN CELSIUS                      <
>     VRB    - VARIABLE WIND DIRECTION                     <
>                                                          <
>>>>>>>>>>>>>>>>>>>>>>>>>>>> KEY <<<<<<<<<<<<<<<<<<<<<<<<<<<




USA.gov is the U.S. government's official web portal to all federal, state and local government web resources and services.